#timestamp,LO_Frequency,Hit,StdDev 
1633240815.8,286047013.7,N
1633240835.7,286047009.5,N
1633240855.5,286047006.9,N
1633240875.3,286047004.9,N
1633240895.2,286047004.7,N
1633240915.0,286047003.6,N
1633240915.9,286047003.6,N
1633240935.7,286047002.5,N
1633240955.6,286047001.1,N
1633240975.4,286047002.4,N
1633240995.3,286047001.5,N
1633241015.1,286047000.9,N
1633241035.8,286047000.4,N
1633241055.7,286046998.6,N
1633241075.5,286046999.4,N
1633241095.4,286046998.8,N
1633241115.2,286046995.8,N
1633241135.0,286046995.3,N
1633241135.9,286046995.3,N
1633241155.8,286046995.7,N
1633241175.6,286046995.0,N
1633241195.4,286047002.0,N
1633241215.3,286047003.1,N
1633241235.1,286047008.9,N
1633241255.9,286047006.9,N
1633241275.7,286047007.0,N
1633241295.5,286047005.7,N
1633241315.4,286047004.4,N
1633241335.2,286047002.6,N
1633241355.0,286046999.9,N
1633241355.9,286046999.9,N
1633241375.8,286047000.2,N
1633241395.6,286047002.3,N
1633241415.5,286047000.8,N
1633241435.3,286046998.1,N
1633241455.1,286046998.6,N
1633241475.9,286047000.8,N
1633241495.7,286047000.6,N
1633241515.5,286046996.5,N
1633241535.4,286046997.2,N
1633241555.2,286047001.1,N
1633241575.1,286047000.1,N
1633241576.0,286047000.1,N
1633241595.8,286047003.5,N
1633241615.6,286046999.9,N
1633241635.5,286047000.7,N
1633241655.3,286046998.7,N
1633241675.2,286047000.4,N
1633241695.9,286047002.5,N
1633241715.7,286047000.6,N
1633241735.6,286047000.4,N
1633241755.4,286047000.5,N
1633241775.2,286047000.5,N
1633241795.1,286047001.1,N
1633241796.0,286047001.1,N
1633241815.8,286047002.5,N
1633241835.7,286046999.9,N
1633241855.5,286047000.4,N
1633241875.3,286047000.3,N
1633241895.2,286047000.8,N
1633241915.0,286047000.5,N
1633241915.9,286047000.5,N
1633241935.7,286047000.9,N
1633241955.6,286046997.6,N
1633241975.4,286046995.7,N
1633241995.3,286046995.2,N
1633242015.1,286046995.8,N
1633242016.0,286046995.8,N
1633242035.8,286046995.2,N
1633242055.7,286046995.4,N
1633242075.5,286046997.4,N
1633242095.3,286046997.8,N
1633242115.2,286046997.7,N
1633242135.0,286046997.1,N
1633242135.9,286046997.1,N
1633242155.8,286046998.7,N
1633242175.6,286047005.6,N
1633242195.4,286047004.9,N
1633242215.3,286047005.5,N
1633242235.1,286047004.8,N
1633242255.9,286047006.6,N
1633242275.7,286047009.7,N
1633242295.5,286047006.7,N
1633242315.4,286047013.4,Y
1633242335.2,286047012.1,P
1633242355.0,286047009.3,N
1633242355.9,286047009.3,N
1633242375.8,286047013.1,N
1633242395.6,286047021.6,Y
1633242415.5,286047010.5,P
1633242435.3,286047011.8,P
1633242455.1,286047008.7,P
1633242475.9,286047003.1,N
1633242495.7,286047002.6,N
1633242515.6,286047002.0,N
1633242535.4,286047004.8,N
1633242555.2,286047003.4,N
1633242575.1,286047005.9,N
1633242576.0,286047005.9,N
1633242595.8,286047003.7,N
1633242615.6,286047000.8,N
1633242635.5,286047000.3,N
1633242655.3,286046999.6,N
1633242675.2,286046999.3,N
1633242695.9,286046996.5,N
1633242715.7,286046998.0,N
1633242735.6,286046993.4,N
1633242755.4,286046997.9,N
1633242775.2,286046999.4,N
1633242795.1,286047000.5,N
1633242796.0,286047000.5,N
1633242815.8,286047002.8,N
1633242835.7,286047002.4,N
1633242855.5,286047000.7,N
1633242875.3,286046996.6,N
1633242895.2,286046999.0,N
1633242915.0,286046997.0,N
1633242915.9,286046997.0,N
1633242935.7,286046997.2,N
1633242955.6,286047002.4,N
1633242975.4,286047002.8,N
1633242995.3,286047005.4,N
1633243015.1,286047003.5,N
1633243016.0,286047003.5,N
1633243035.8,286047004.6,N
1633243055.7,286047003.5,N
1633243075.5,286047012.1,Y
1633243095.4,286047011.2,P
1633243115.2,286047010.7,N
1633243135.0,286047003.7,N
1633243135.9,286047003.7,N
1633243155.8,286047003.7,N
1633243175.6,286047000.1,N
1633243195.4,286046999.9,N
1633243215.3,286047004.1,N
1633243235.1,286047000.0,N
1633243255.9,286046999.0,N
1633243275.7,286046998.3,N
1633243295.5,286046998.6,N
1633243315.4,286046997.5,N
1633243335.2,286046997.6,N
1633243355.0,286046998.0,N
1633243356.0,286046998.0,N
1633243375.8,286046999.4,N
1633243395.6,286046999.3,N
1633243415.5,286046998.5,N
1633243435.3,286046996.5,N
1633243455.1,286046995.3,N
1633243475.9,286046994.6,N
1633243495.7,286046994.3,N
1633243515.6,286046992.2,N
1633243535.4,286046993.0,N
1633243555.2,286046991.9,N
1633243575.1,286046991.8,N
1633243576.0,286046991.8,N
1633243595.8,286046995.6,N
1633243615.6,286046999.4,N
1633243635.5,286046998.0,N
1633243655.3,286046995.2,N
1633243675.2,286046995.0,N
1633243695.9,286046998.6,N
1633243715.7,286046997.2,N
1633243735.6,286046997.8,N
1633243755.4,286046999.5,N
1633243775.2,286046996.9,N
1633243795.1,286046997.5,N
1633243796.0,286046997.5,N
1633243815.8,286046995.0,N
1633243835.7,286046995.6,N
1633243855.5,286046991.7,Y
1633243875.3,286046995.5,P
1633243895.2,286046997.5,P
1633243915.0,286046995.8,P
1633243915.9,286046995.8,Y
1633243935.8,286046996.5,P
1633243955.6,286046999.2,P
1633243975.4,286046999.5,N
1633243995.3,286046999.6,N
1633244015.1,286046996.9,N
1633244035.9,286046995.0,Y
1633244055.7,286046995.0,P
1633244075.5,286046995.3,P
1633244095.4,286046995.1,P
1633244115.2,286046996.9,N
1633244135.0,286046996.7,N
1633244136.0,286046996.7,N
1633244155.8,286046996.6,Y
1633244175.6,286046999.7,P
1633244195.5,286047002.7,N
1633244215.3,286047009.8,P
1633244235.1,286047006.2,N
1633244255.9,286047005.2,N
1633244275.7,286047007.6,N
1633244295.6,286047006.8,N
1633244315.4,286047013.1,Y
1633244335.2,286047012.4,P
1633244355.1,286047011.6,N
1633244356.0,286047011.6,P
1633244375.8,286047009.4,N
1633244395.7,286047008.5,N
